SCP
0 0 0 0 0 0 0 0 0 0 0 0 0 0 0 0 0 0 0 0 0 0 0 0 0 0 0 0 0 0 0 0 0 0 0 0 0 0 0 0 0 0 0
0 0 0 0 0 0 0 0 0 0 0 0 0 0 0 0 0 0 0 0 0 0 0 0 0 0 0 0 0 0 0 0 0 0 0 0 0 0 0 0 0 0 0
0 0 0 0 0 0 0 0 0 0 0 0 0 0 0 0 0 0 0 0 0 0 0 0 0 0 0 0 0 0 0 0 0 0 0 0 0 0 0 0 0 0 0
0 0 0 0 0 0 0 0 0 0 0 0 0 0 0 0 0 0 0 0 0 0 0 0 0 0 0 0 0 0 0 0 0 0 0 0 0 0 0 0 0 0 0
0 0 0 0 0 0 0 0 0 0 0 0 0 0 0 0 0 0 0 0 0 0 0 0 0 0 0 0 0 0 0 0 0 0 0 0 0 0 0 0 0 0 0
0 0 0 0 0 0 0 0 0 0 0 0 0 0 0 0 0 0 0 0 0 0 0 0 0 0 0 0 0 0 0 0 0 0 0 0 0 0 0 0 0 0 0
0 0 0 0 0 0 0 0 0 0 0 0 0 0 0 0 0 0 0 0 0 0 0 0 0 0 0 0 0 0 0 0 0 0 0 0 0 0 0 0 0 0 0
0 0 -0 0 0 0 0 0 0 0 0 0 0 0 0 0 0 0 0 0 0 0 0 0 0 0 0 0 0 0 0 0 0 0 0 0 0 0 0 0 0 0 0
0 0 -0 -0 0 0 0 0 0 0 0 0 0 0 0 0 0 0 0 0 0 0 0 0 0 0 0 0 0 0 0 0 0 0 0 0 0 0 0 0 0 0 0
0 0 0 -0 -0 0 0 0 0 0 0 0 0 0 0 0 0 0 0 0 0 0 0 0 0 0 0 0 0 0 0 0 0 0 0 0 0 0 0 0 0 0 0
-0 0 0 0 0 -0 0 0 0 0 0 0 0 0 0 0 0 0 0 0 0 0 0 0 0 0 0 0 0 0 0 0 0 0 0 0 0 0 0 0 0 0 0
0 0 0 0 0 0 0 0 0 0 0 0 0 0 0 0 0 0 0 0 0 0 0 0 0 0 0 0 0 0 0 0 0 0 0 0 0 0 0 0 0 0 0
0 0 0 0 0 0 0 0 0 0 0 0 0 0 0 0 0 0 0 0 0 0 0 0 0 0 0 0 0 0 0 0 0 0 0 0 0 0 0 0 0 0 0
0 0 0 0 0 0 0 0 0 0 0 0 0 0 0 0 0 0 0 0 0 0 0 0 0 0 0 0 0 0 0 0 0 0 0 0 0 0 0 0 0 0 0
0 0 0 0 0 0 0 0 0 0 0 0 0 0 0 0 0 0 0 0 0 0 0 0 0 0 0 0 0 0 0 0 0 0 0 0 0 0 0 0 0 0 0
0 0 0 0 -0 0 0 0 0 -0 0 0 0 0 0 0 0 0 0 0 0 0 0 0 0 0 0 0 0 0 0 0 0 0 0 0 0 0 0 0 0 0 0
-0 -0 0 0 0 0 0 0 -0 -0 0 0 0 0 0 0 0 0 0 0 0 0 0 0 0 0 0 0 0 0 0 0 0 0 0 0 0 0 0 0 0 0 0
0 0 0 0 0 0 -0 -0 -0 -0 0 0 0 0 0 0 0 0 0 0 0 0 0 0 0 0 0 0 0 0 0 0 0 0 0 0 0 0 0 0 0 0 0
-0 -0 -0 -0 -0 0 -0 -0 0 0 0 0 0 0 0 0 0 0 0 0 0 0 0 0 0 0 0 0 0 0 0 0 0 0 0 0 0 0 0 0 0 0 0
-0 0 0 0 0 0 0 0 0 0 0 0 0 0 0 0 0 0 0 0 0 0 0 0 0 0 0 0 0 0 0 0 0 0 0 0 0 0 0 0 0 0 0
0 0 0 0 0 0 0 0 0 0 0 0 0 0 0 0 0 0 0 0 0 0 0 0 0 0 0 0 0 0 0 0 0 0 0 0 0 0 0 0 0 0 0
-0 0 0 0 0 0 0 0 0 0 0 0 0 0 0 0 0 0 0 0 0 0 0 0 0 0 0 0 0 0 0 0 0 0 0 0 0 0 0 0 0 0 0
-0 -0 -0 0 0 0 0 0 0 0 0 0 0 0 0 0 0 0 0 0 0 0 0 0 0 0 0 0 0 0 0 0 0 0 0 0 0 0 0 0 0 0 0
-0 -0 -0 -0 -0 -0 -0 0 0 0 0 0 0 0 0 0 0 0 0 0 0 0 0 0 0 0 0 0 0 0 0 0 0 0 0 0 0 0 0 0 0 0 0
-0 -0 -0 -0 -0 -0 -0 -0 0 0 0 0 0 0 0 0 0 0 0 0 0 0 0 0 0 0 0 0 0 0 0 0 0 0 0 0 0 0 0 0 0 0 0
-0 -0 -0 -0 -0 -0 -0 -0 -0 -0 0 0 0 0 0 0 0 0 0 0 0 0 0 0 0 0 0 0 0 0 0 0 0 0 0 0 0 0 0 0 0 0 0
Wind_Speed_500mb
39 42 43 56 66 68 68 68 71 73 77 80 80 75 74 72 71 72 75 74 74 72 69 69 68 64 63 63 62 61 62 62 67 61 43 38 42 39 35 32 30 31 30
28 26 43 47 46 53 63 66 65 68 69 75 81 85 84 81 78 79 80 80 80 81 77 75 74 69 68 66 67 69 69 68 70 68 58 56 51 46 42 38 38 35 34
41 31 27 31 48 51 55 59 61 61 62 65 71 82 88 89 87 85 86 86 86 86 84 82 80 75 73 74 74 75 74 73 73 74 68 59 58 57 53 47 44 40 38
45 49 39 28 27 34 47 53 59 61 62 64 67 73 78 85 91 91 92 93 94 94 93 92 88 86 80 79 80 80 79 79 78 77 75 69 66 61 57 56 51 44 40
43 45 50 48 35 29 30 37 46 53 62 65 69 73 75 79 84 89 93 97 100 102 102 102 99 96 90 86 85 84 86 86 86 84 82 78 75 72 69 57 50 46 43
50 43 51 55 48 42 33 35 39 42 50 58 69 75 82 84 83 83 86 91 96 103 108 108 106 104 101 96 93 89 91 91 93 92 90 90 83 77 67 59 57 54 49
58 50 50 59 56 50 42 37 36 40 47 50 59 61 73 85 88 88 86 90 94 99 102 106 110 111 108 105 102 98 99 96 94 91 94 93 88 77 68 64 66 60 52
63 58 55 63 66 61 52 45 41 40 42 47 54 59 65 67 73 85 91 95 99 102 103 101 103 105 109 107 105 107 109 107 104 98 102 97 89 78 70 69 61 53 56
72 64 65 69 72 71 65 58 52 50 44 45 48 53 60 64 63 65 72 87 102 107 107 108 108 107 105 102 102 110 114 115 108 102 103 97 91 81 78 75 74 69 65
63 67 74 72 68 68 69 67 63 57 54 50 51 51 52 58 57 59 62 73 91 101 106 111 113 113 109 109 110 110 117 119 112 111 108 105 98 93 90 86 79 72 70
64 73 69 71 71 68 68 66 66 63 56 56 57 53 51 50 51 52 58 69 81 89 99 105 108 107 104 105 111 113 120 108 114 113 110 108 109 103 99 93 87 78 79
70 73 66 70 72 72 69 67 64 63 67 68 66 63 56 50 47 45 47 55 67 83 93 96 102 99 98 96 98 102 103 105 110 113 109 111 114 112 109 100 94 85 82
70 70 70 71 68 68 71 70 69 66 67 70 71 72 71 64 57 50 48 48 51 62 75 86 91 98 97 94 89 86 79 95 113 116 117 117 112 104 105 106 97 88 81
70 71 71 72 73 69 69 72 74 72 72 71 72 74 73 72 71 59 56 54 53 53 59 64 72 84 93 95 91 86 79 87 104 113 117 112 103 101 104 102 99 93 87
60 64 71 74 72 74 74 78 77 78 78 76 72 70 72 74 72 69 66 64 63 63 56 59 60 64 75 89 97 96 87 86 100 107 113 113 106 96 99 99 98 95 92
79 72 65 62 65 70 78 79 83 91 89 83 80 73 72 72 72 66 63 60 59 62 68 72 74 73 73 77 86 95 102 98 98 103 109 110 105 98 94 95 98 99 96
74 84 86 89 86 81 70 76 79 103 108 101 89 78 75 77 71 65 62 60 58 60 69 78 82 83 81 78 78 82 91 98 101 104 110 110 104 99 96 94 99 98 94
71 63 59 61 65 73 79 82 85 89 89 98 90 85 83 77 68 62 57 57 63 61 69 73 80 86 87 84 83 80 79 84 91 101 108 108 105 100 99 96 100 101 95
79 77 70 73 78 74 77 76 76 79 84 93 87 85 82 77 73 64 58 62 67 71 71 74 76 80 87 90 87 84 79 79 84 89 99 104 105 101 99 98 99 98 95
60 58 58 62 65 66 65 67 70 72 72 71 68 68 72 77 77 75 67 61 66 70 71 73 77 79 82 85 85 85 82 80 82 85 88 93 99 99 98 98 99 98 96
56 57 55 56 56 59 59 63 64 72 78 79 80 73 65 73 79 80 74 73 77 75 79 79 78 79 80 84 86 85 83 85 86 86 83 86 91 94 95 94 93 95 92
51 54 56 57 56 58 57 53 53 64 57 70 80 76 68 69 78 80 77 78 76 78 79 81 83 81 84 84 85 88 89 86 88 88 84 81 85 85 88 89 90 92 87
65 67 68 68 68 65 67 65 61 59 56 54 52 49 56 62 67 74 80 83 81 79 82 83 87 88 84 85 84 83 86 86 87 85 83 80 83 84 85 87 91 90 84
69 70 71 75 71 78 74 79 77 77 76 71 66 62 53 44 37 39 56 70 76 83 88 83 82 85 84 86 81 75 79 80 81 76 76 78 82 85 82 84 88 86 82
67 70 72 74 78 81 84 87 87 88 88 88 87 80 74 68 63 61 63 69 83 89 89 81 78 76 75 73 74 69 74 74 74 72 73 78 79 79 80 82 84 81 78
61 64 67 71 74 74 81 84 85 88 90 92 94 93 89 84 76 70 62 55 57 65 74 73 68 68 63 61 66 66 67 66 66 59 75 70 76 77 76 77 78 78 75
Wind_Direction_500mb
272 276 276 267 265 268 270 270 268 266 262 260 261 258 256 253 251 247 246 247 246 247 248 251 253 251 248 245 243 244 244 244 247 247 251 249 248 254 262 268 275 278 284
3 322 271 281 283 275 274 276 276 273 270 263 260 260 260 257 254 251 249 248 246 247 249 250 252 252 250 248 246 245 245 245 247 252 246 250 254 261 264 268 271 274 278
21 4 349 297 276 286 288 286 284 283 278 272 264 260 260 260 258 256 254 253 252 251 252 252 254 253 252 251 249 248 247 246 246 249 251 246 250 255 259 262 265 269 272
19 12 6 341 323 294 287 293 288 286 284 279 273 268 265 263 262 260 258 257 256 254 253 253 253 254 253 253 251 250 250 248 247 247 250 248 247 249 253 256 260 265 268
5 360 352 5 355 312 300 290 292 287 280 281 278 273 270 267 265 263 262 260 258 258 257 255 255 255 255 255 255 253 251 249 246 245 247 248 247 247 250 259 262 259 264
351 353 342 341 351 357 344 302 291 281 282 282 275 273 270 269 269 267 267 265 264 261 259 259 258 257 257 256 256 256 255 253 251 247 249 249 252 253 253 253 255 254 257
340 341 335 328 335 342 342 345 342 306 286 275 279 280 274 269 269 270 270 269 268 266 264 263 262 260 259 258 258 257 257 255 252 253 253 253 255 257 253 251 252 255 259
332 332 326 324 328 330 330 330 330 332 323 300 281 273 276 278 273 268 268 269 269 269 268 266 265 265 264 262 261 260 257 257 253 250 252 253 254 254 251 253 257 257 252
322 326 324 324 323 323 323 324 319 319 317 319 310 294 280 275 274 274 271 268 267 267 268 268 266 265 263 264 261 259 260 259 258 258 257 255 255 251 247 246 243 242 249
323 319 316 318 320 319 319 318 318 316 308 310 312 312 304 290 281 273 269 268 268 268 268 267 267 266 265 264 262 261 258 257 258 256 253 254 252 247 245 245 246 244 247
314 311 312 313 316 316 316 316 314 314 309 302 303 303 306 305 301 288 276 268 267 268 267 267 268 268 267 264 263 262 261 264 262 260 257 253 250 247 246 244 246 246 246
309 311 312 311 312 313 314 314 313 312 308 306 303 298 298 303 306 302 294 280 271 268 268 270 271 271 271 270 267 265 265 265 262 260 257 253 249 245 246 248 249 249 249
309 308 308 310 309 309 310 311 312 314 313 312 310 308 302 300 301 306 304 296 287 274 269 269 271 272 272 272 269 268 266 257 253 254 255 254 254 254 248 245 243 242 241
306 306 307 308 309 306 305 305 307 309 314 312 310 308 309 305 301 301 308 306 295 286 281 274 269 268 267 267 268 265 259 253 251 254 255 257 256 249 245 239 234 233 234
304 303 302 303 301 301 299 298 298 299 307 308 306 303 304 302 302 305 304 303 302 294 289 283 274 265 261 259 257 255 252 251 249 250 251 251 250 249 244 237 231 231 231
295 297 300 301 300 300 299 296 291 296 302 301 302 296 295 293 296 296 293 292 291 294 282 274 273 270 265 262 259 254 252 249 248 247 246 248 250 248 244 237 231 230 230
301 297 297 294 295 293 294 299 301 299 299 300 299 298 293 297 300 294 288 289 287 283 277 277 273 272 272 269 266 263 257 253 249 245 245 247 247 247 244 239 231 229 229
302 303 301 300 298 294 297 297 296 297 294 297 296 299 299 301 304 301 295 294 285 280 280 283 281 278 275 273 272 267 263 256 249 246 243 243 243 244 242 237 233 230 229
310 313 312 306 303 300 297 295 293 290 292 293 292 294 297 300 302 301 295 290 292 290 289 290 288 283 280 276 274 272 266 260 253 248 245 243 243 242 241 239 235 232 230
328 326 322 319 314 308 305 303 299 294 292 290 291 290 293 299 297 300 300 294 293 292 290 289 290 290 286 281 277 272 267 259 253 249 246 245 245 243 241 239 234 230 229
346 345 340 337 331 320 313 303 308 297 296 294 292 293 292 283 287 291 292 290 292 295 295 293 291 288 287 284 276 269 266 261 256 251 246 243 242 240 238 238 237 231 229
3 0 1 1 356 352 344 338 323 297 321 300 292 294 288 284 285 291 292 293 293 295 297 296 294 290 287 285 279 271 264 259 255 251 247 243 241 239 237 235 231 225 224
25 21 18 14 9 8 10 11 5 356 347 326 322 319 303 291 286 289 293 296 295 295 296 293 293 292 287 284 279 272 264 259 257 254 249 244 239 235 234 231 228 222 219
31 30 24 20 17 20 16 20 19 15 14 10 2 355 340 325 317 306 292 290 290 292 294 294 291 291 288 285 279 273 266 259 254 252 251 248 240 233 231 227 224 221 216
34 31 30 25 20 20 21 23 24 22 22 20 18 15 9 1 348 329 311 295 292 292 292 293 290 287 286 282 280 269 260 259 255 251 245 242 238 233 228 224 220 214 210
32 30 30 29 26 22 20 22 23 22 22 24 24 23 20 15 10 5 355 334 309 296 293 289 286 285 286 286 280 274 257 247 241 241 240 235 232 224 219 218 213 207 201
Wind_Speed_850mb
39 42 43 56 66 68 68 68 71 73 77 80 80 75 74 72 71 72 75 74 74 72 69 69 68 64 63 63 62 61 62 62 67 61 43 38 42 39 35 32 30 31 30
28 26 43 47 46 53 63 66 65 68 69 75 81 85 84 81 78 79 80 80 80 81 77 75 74 69 68 66 67 69 69 68 70 68 58 56 51 46 42 38 38 35 34
41 31 27 31 48 51 55 59 61 61 62 65 71 82 88 89 87 85 86 86 86 86 84 82 80 75 73 74 74 75 74 73 73 74 68 59 58 57 53 47 44 40 38
45 49 39 28 27 34 47 53 59 61 62 64 67 73 78 85 91 91 92 93 94 94 93 92 88 86 80 79 80 80 79 79 78 77 75 69 66 61 57 56 51 44 40
43 45 50 48 35 29 30 37 46 53 62 65 69 73 75 79 84 89 93 97 100 102 102 102 99 96 90 86 85 84 86 86 86 84 82 78 75 72 69 57 50 46 43
50 43 51 55 48 42 33 35 39 42 50 58 69 75 82 84 83 83 86 91 96 103 108 108 106 104 101 96 93 89 91 91 93 92 90 90 83 77 67 59 57 54 49
58 50 50 59 56 50 42 37 36 40 47 50 59 61 73 85 88 88 86 90 94 99 102 106 110 111 108 105 102 98 99 96 94 91 94 93 88 77 68 64 66 60 52
63 58 55 63 66 61 52 45 41 40 42 47 54 59 65 67 73 85 91 95 99 102 103 101 103 105 109 107 105 107 109 107 104 98 102 97 89 78 70 69 61 53 56
72 64 65 69 72 71 65 58 52 50 44 45 48 53 60 64 63 65 72 87 102 107 107 108 108 107 105 102 102 110 114 115 108 102 103 97 91 81 78 75 74 69 65
63 67 74 72 68 68 69 67 63 57 54 50 51 51 52 58 57 59 62 73 91 101 106 111 113 113 109 109 110 110 117 119 112 111 108 105 98 93 90 86 79 72 70
64 73 69 71 71 68 68 66 66 63 56 56 57 53 51 50 51 52 58 69 81 89 99 105 108 107 104 105 111 113 120 108 114 113 110 108 109 103 99 93 87 78 79
70 73 66 70 72 72 69 67 64 63 67 68 66 63 56 50 47 45 47 55 67 83 93 96 102 99 98 96 98 102 103 105 110 113 109 111 114 112 109 100 94 85 82
70 70 70 71 68 68 71 70 69 66 67 70 71 72 71 64 57 50 48 48 51 62 75 86 91 98 97 94 89 86 79 95 113 116 117 117 112 104 105 106 97 88 81
70 71 71 72 73 69 69 72 74 72 72 71 72 74 73 72 71 59 56 54 53 53 59 64 72 84 93 95 91 86 79 87 104 113 117 112 103 101 104 102 99 93 87
60 64 71 74 72 74 74 78 77 78 78 76 72 70 72 74 72 69 66 64 63 63 56 59 60 64 75 89 97 96 87 86 100 107 113 113 106 96 99 99 98 95 92
79 72 65 62 65 70 78 79 83 91 89 83 80 73 72 72 72 66 63 60 59 62 68 72 74 73 73 77 86 95 102 98 98 103 109 110 105 98 94 95 98 99 96
74 84 86 89 86 81 70 76 79 103 108 101 89 78 75 77 71 65 62 60 58 60 69 78 82 83 81 78 78 82 91 98 101 104 110 110 104 99 96 94 99 98 94
71 63 59 61 65 73 79 82 85 89 89 98 90 85 83 77 68 62 57 57 63 61 69 73 80 86 87 84 83 80 79 84 91 101 108 108 105 100 99 96 100 101 95
79 77 70 73 78 74 77 76 76 79 84 93 87 85 82 77 73 64 58 62 67 71 71 74 76 80 87 90 87 84 79 79 84 89 99 104 105 101 99 98 99 98 95
60 58 58 62 65 66 65 67 70 72 72 71 68 68 72 77 77 75 67 61 66 70 71 73 77 79 82 85 85 85 82 80 82 85 88 93 99 99 98 98 99 98 96
56 57 55 56 56 59 59 63 64 72 78 79 80 73 65 73 79 80 74 73 77 75 79 79 78 79 80 84 86 85 83 85 86 86 83 86 91 94 95 94 93 95 92
51 54 56 57 56 58 57 53 53 64 57 70 80 76 68 69 78 80 77 78 76 78 79 81 83 81 84 84 85 88 89 86 88 88 84 81 85 85 88 89 90 92 87
65 67 68 68 68 65 67 65 61 59 56 54 52 49 56 62 67 74 80 83 81 79 82 83 87 88 84 85 84 83 86 86 87 85 83 80 83 84 85 87 91 90 84
69 70 71 75 71 78 74 79 77 77 76 71 66 62 53 44 37 39 56 70 76 83 88 83 82 85 84 86 81 75 79 80 81 76 76 78 82 85 82 84 88 86 82
67 70 72 74 78 81 84 87 87 88 88 88 87 80 74 68 63 61 63 69 83 89 89 81 78 76 75 73 74 69 74 74 74 72 73 78 79 79 80 82 84 81 78
61 64 67 71 74 74 81 84 85 88 90 92 94 93 89 84 76 70 62 55 57 65 74 73 68 68 63 61 66 66 67 66 66 59 75 70 76 77 76 77 78 78 75
Wind_Direction_850mb
272 276 276 267 265 268 270 270 268 266 262 260 261 258 256 253 251 247 246 247 246 247 248 251 253 251 248 245 243 244 244 244 247 247 251 249 248 254 262 268 275 278 284
3 322 271 281 283 275 274 276 276 273 270 263 260 260 260 257 254 251 249 248 246 247 249 250 252 252 250 248 246 245 245 245 247 252 246 250 254 261 264 268 271 274 278
21 4 349 297 276 286 288 286 284 283 278 272 264 260 260 260 258 256 254 253 252 251 252 252 254 253 252 251 249 248 247 246 246 249 251 246 250 255 259 262 265 269 272
19 12 6 341 323 294 287 293 288 286 284 279 273 268 265 263 262 260 258 257 256 254 253 253 253 254 253 253 251 250 250 248 247 247 250 248 247 249 253 256 260 265 268
5 360 352 5 355 312 300 290 292 287 280 281 278 273 270 267 265 263 262 260 258 258 257 255 255 255 255 255 255 253 251 249 246 245 247 248 247 247 250 259 262 259 264
351 353 342 341 351 357 344 302 291 281 282 282 275 273 270 269 269 267 267 265 264 261 259 259 258 257 257 256 256 256 255 253 251 247 249 249 252 253 253 253 255 254 257
340 341 335 328 335 342 342 345 342 306 286 275 279 280 274 269 269 270 270 269 268 266 264 263 262 260 259 258 258 257 257 255 252 253 253 253 255 257 253 251 252 255 259
332 332 326 324 328 330 330 330 330 332 323 300 281 273 276 278 273 268 268 269 269 269 268 266 265 265 264 262 261 260 257 257 253 250 252 253 254 254 251 253 257 257 252
322 326 324 324 323 323 323 324 319 319 317 319 310 294 280 275 274 274 271 268 267 267 268 268 266 265 263 264 261 259 260 259 258 258 257 255 255 251 247 246 243 242 249
323 319 316 318 320 319 319 318 318 316 308 310 312 312 304 290 281 273 269 268 268 268 268 267 267 266 265 264 262 261 258 257 258 256 253 254 252 247 245 245 246 244 247
314 311 312 313 316 316 316 316 314 314 309 302 303 303 306 305 301 288 276 268 267 268 267 267 268 268 267 264 263 262 261 264 262 260 257 253 250 247 246 244 246 246 246
309 311 312 311 312 313 314 314 313 312 308 306 303 298 298 303 306 302 294 280 271 268 268 270 271 271 271 270 267 265 265 265 262 260 257 253 249 245 246 248 249 249 249
309 308 308 310 309 309 310 311 312 314 313 312 310 308 302 300 301 306 304 296 287 274 269 269 271 272 272 272 269 268 266 257 253 254 255 254 254 254 248 245 243 242 241
306 306 307 308 309 306 305 305 307 309 314 312 310 308 309 305 301 301 308 306 295 286 281 274 269 268 267 267 268 265 259 253 251 254 255 257 256 249 245 239 234 233 234
304 303 302 303 301 301 299 298 298 299 307 308 306 303 304 302 302 305 304 303 302 294 289 283 274 265 261 259 257 255 252 251 249 250 251 251 250 249 244 237 231 231 231
295 297 300 301 300 300 299 296 291 296 302 301 302 296 295 293 296 296 293 292 291 294 282 274 273 270 265 262 259 254 252 249 248 247 246 248 250 248 244 237 231 230 230
301 297 297 294 295 293 294 299 301 299 299 300 299 298 293 297 300 294 288 289 287 283 277 277 273 272 272 269 266 263 257 253 249 245 245 247 247 247 244 239 231 229 229
302 303 301 300 298 294 297 297 296 297 294 297 296 299 299 301 304 301 295 294 285 280 280 283 281 278 275 273 272 267 263 256 249 246 243 243 243 244 242 237 233 230 229
310 313 312 306 303 300 297 295 293 290 292 293 292 294 297 300 302 301 295 290 292 290 289 290 288 283 280 276 274 272 266 260 253 248 245 243 243 242 241 239 235 232 230
328 326 322 319 314 308 305 303 299 294 292 290 291 290 293 299 297 300 300 294 293 292 290 289 290 290 286 281 277 272 267 259 253 249 246 245 245 243 241 239 234 230 229
346 345 340 337 331 320 313 303 308 297 296 294 292 293 292 283 287 291 292 290 292 295 295 293 291 288 287 284 276 269 266 261 256 251 246 243 242 240 238 238 237 231 229
3 0 1 1 356 352 344 338 323 297 321 300 292 294 288 284 285 291 292 293 293 295 297 296 294 290 287 285 279 271 264 259 255 251 247 243 241 239 237 235 231 225 224
25 21 18 14 9 8 10 11 5 356 347 326 322 319 303 291 286 289 293 296 295 295 296 293 293 292 287 284 279 272 264 259 257 254 249 244 239 235 234 231 228 222 219
31 30 24 20 17 20 16 20 19 15 14 10 2 355 340 325 317 306 292 290 290 292 294 294 291 291 288 285 279 273 266 259 254 252 251 248 240 233 231 227 224 221 216
34 31 30 25 20 20 21 23 24 22 22 20 18 15 9 1 348 329 311 295 292 292 292 293 290 287 286 282 280 269 260 259 255 251 245 242 238 233 228 224 220 214 210
32 30 30 29 26 22 20 22 23 22 22 24 24 23 20 15 10 5 355 334 309 296 293 289 286 285 286 286 280 274 257 247 241 241 240 235 232 224 219 218 213 207 201